Theta_e
304 305 303 305 306 307 307 308 311 313 314 312 311 313 313 311 311 311 309 308 308 311
298 299 298 299 300 300 302 304 305 307 307 307 307 308 306 304 305 304 304 302 303 302
294 295 296 296 296 296 298 300 301 301 301 300 300 301 301 300 301 300 299 298 297 297
290 291 291 291 292 292 293 295 295 296 295 295 294 295 296 296 296 295 295 296 295 293
287 287 287 287 288 289 290 292 292 292 291 290 290 291 291 291 292 291 291 290 290 289
284 285 285 285 286 287 288 289 290 289 288 287 287 287 289 289 289 288 288 288 286 286
283 283 284 284 285 285 287 287 287 287 287 287 286 285 286 287 287 286 286 286 284 284
283 283 283 283 283 284 284 285 285 285 286 285 285 284 283 284 284 284 284 284 284 282
281 281 281 282 282 283 283 283 283 283 283 282 282 283 282 284 283 283 283 281 283 282
279 279 279 280 280 280 281 281 281 281 281 280 281 282 281 281 281 281 280 280 279 278
277 277 277 277 277 278 278 278 278 278 278 278 279 281 280 280 280 279 278 278 278 278
275 275 275 275 275 276 276 277 276 276 276 276 277 280 280 279 279 278 277 277 277 277
274 274 273 273 273 274 275 274 275 275 275 275 275 278 279 279 278 277 276 277 277 277
272 272 272 272 273 273 273 273 273 273 273 273 273 275 277 278 277 276 276 276 275 276
Wind_Speed
10 7 7 8 6 7 6 5 5 5 6 6 5 5 6 5 5 5 6 7 6 4
11 11 10 10 9 7 7 6 7 7 8 7 7 7 7 5 6 6 5 6 5 4
11 11 11 10 11 10 9 7 9 9 9 9 9 9 8 6 7 7 5 5 7 6
11 12 11 11 11 10 10 10 11 10 10 10 10 10 9 8 8 9 8 7 7 7
12 12 12 12 11 10 11 10 10 11 11 11 10 10 10 10 9 9 9 9 8 9
12 12 12 11 11 11 10 11 11 11 11 11 11 10 9 8 8 9 9 9 9 9
12 11 11 10 10 10 10 10 10 10 11 11 11 11 9 8 8 8 8 9 9 9
10 10 10 10 10 10 10 9 9 9 10 11 11 10 9 7 8 7 8 8 8 10
9 9 10 9 9 9 10 9 9 9 10 11 9 14 13 8 6 7 7 7 6 7
8 9 9 8 8 8 8 8 9 9 9 10 9 14 11 9 6 6 7 7 6 6
7 7 7 7 7 7 7 7 7 8 7 8 9 13 11 8 7 6 6 7 7 6
6 6 6 6 6 5 5 6 6 6 7 7 8 12 12 7 6 6 5 5 6 6
5 5 5 5 4 4 5 5 5 6 6 6 6 11 11 9 5 5 4 3 4 4
4 5 4 4 4 4 5 5 5 5 5 6 6 7 11 11 5 5 4 4 4 3
Wind_Direction
54 61 63 60 65 71 64 60 42 58 56 61 42 50 55 57 50 44 50 45 38 49
61 69 73 67 61 57 58 60 55 51 65 51 48 59 72 63 58 58 49 47 40 44
62 64 68 71 71 65 61 56 64 61 59 54 46 45 54 53 43 61 44 47 48 42
66 67 66 66 65 65 62 59 61 59 57 53 49 43 51 54 47 55 49 41 43 37
70 69 68 66 63 62 66 62 66 66 63 56 51 49 51 51 51 54 52 44 43 36
65 66 66 64 61 60 65 65 66 67 65 59 52 47 48 56 62 60 56 52 51 39
58 60 62 62 61 61 61 65 65 64 64 60 53 44 38 44 56 63 59 63 53 49
60 58 60 60 61 63 61 62 60 62 61 57 51 38 25 40 48 52 68 58 66 52
59 58 56 54 54 60 62 58 61 60 61 58 52 40 35 30 52 53 57 52 53 57
59 58 53 51 52 52 58 59 57 57 59 58 48 36 36 28 56 56 52 51 44 49
62 67 64 65 59 55 53 61 60 57 57 59 45 36 34 37 54 59 52 58 36 38
53 62 63 66 62 56 71 72 75 68 62 64 47 32 37 29 41 39 44 53 51 25
61 69 72 69 63 55 68 71 69 76 71 58 53 28 25 27 19 27 12 16 21 22
62 66 63 66 55 61 68 74 69 71 58 53 36 23 16 8 21 5 348 348 342 333